(271966) = 2005 AJ77

Discovered at Kitt Peak on 2005-01-15 by Spacewatch.

Orbit

Orbit type: Main Belt

Note: WebGL enabled browser required.

epoch2022-01-21.0
epoch JD2459600.5
perihelion date2022-01-15.89110
perihelion JD2459595.39110
argument of perihelion (°)86.25139
ascending node (°)75.37359
inclination (°)5.41764
eccentricity0.2059552
perihelion distance (AU)2.4959476
Tisserand w.r.t. Jupiter3.2
ΔV w.r.t. Earth (km/sec)10.1
semimajor axis (AU)3.1433337
mean anomaly (°)0.90354
mean daily motion (°/day)0.17685530
aphelion distance (AU)3.791
period (years)5.57
P-vector [x]-0.94470045
P-vector [y]0.25071446
P-vector [z]0.21138428
Q-vector [x]-0.31495286
Q-vector [y]-0.87322590
Q-vector [z]-0.37186184
absolute magnitude16.24
phase slope0.15
uncertainty0
referenceMPO 696621
observations used314
oppositions14
arc length (days)6742
first opposition used2003
last opposition used2022
residual rms (arc-secs)0.79
perturbers coarse indicatorM-v
perturbers precise indicator003Ek
first observation date used2003-11-20.0
last observation date used2022-05-06.0
computer namePan
JD of orbit computation2456966.855068
perihelion JD uncertainty (days)1.4534E-04
argument of perihelion uncertainty (°)7.0864E-05
ascending node uncertainty (°)6.7229E-05
inclination uncertainty (°)5.7420E-06
eccentricity uncertainty 7.0006E-08
perihelion distance uncertainty (AU)1.9789E-07
Minimum Orbit Intersection Distances (in AU)
for orbit epoch: 2459600.5, reference: E2022-B04
Mercury2.11929
Venus1.77747
Earth1.51196
Mars0.84072
Jupiter1.231
Saturn5.76744
Uranus15.9065
Neptune26.1536

Observations

326 total observations over interval: 2003 11 20.17801 – 2022 05 26.226093
These data are available for download (format description).

Date (UT) J2000 RA J2000 Dec Magn Location Ref
2003 11 20.17801 02 41 36.41 +11 47 09.0 21.5 V 691 – Steward Observatory, Kitt Peak-Spacewatch MPS 304886
2003 11 20.20654 02 41 35.03 +11 47 05.2 21.8 V 691 – Steward Observatory, Kitt Peak-Spacewatch MPS 304886
2003 11 20.23378 02 41 33.71 +11 47 01.7 21.5 V 691 – Steward Observatory, Kitt Peak-Spacewatch MPS 304886
2005 01 15.45375 09 49 05.58 +20 40 17.3 19.9 V 691 – Steward Observatory, Kitt Peak-Spacewatch MPS 125497
2005 01 15.47992 09 49 04.78 +20 40 25.6 20.0 V 691 – Steward Observatory, Kitt Peak-Spacewatch MPS 125497
2005 01 15.54236 09 49 02.90 +20 40 45.7 19.9 V 691 – Steward Observatory, Kitt Peak-Spacewatch MPS 125497
2005 01 19.40634 09 47 01.89 +21 02 13.5 19.8 V 691 – Steward Observatory, Kitt Peak-Spacewatch MPS 125497
2005 01 19.43182 09 47 00.96 +21 02 22.1 20.1 V 691 – Steward Observatory, Kitt Peak-Spacewatch MPS 125497
2005 01 19.45768 09 47 00.04 +21 02 30.7 20.3 V 691 – Steward Observatory, Kitt Peak-Spacewatch MPS 125497
2005 02 03.32128 09 36 32.73 +22 27 40.8 19.8   704 – Lincoln Laboratory ETS, New Mexico MPS 126811
2005 02 03.33371 09 36 32.03 +22 27 44.9 19.6   704 – Lincoln Laboratory ETS, New Mexico MPS 126811
2005 02 03.34613 09 36 31.44 +22 27 48.7 19.6   704 – Lincoln Laboratory ETS, New Mexico MPS 126811
2005 02 03.35973 09 36 30.75 +22 27 53.5 19.6   704 – Lincoln Laboratory ETS, New Mexico MPS 126811
2005 02 04.36028 09 35 42.06 +22 33 22.3 19.2 R 699 – Lowell Observatory-LONEOS MPS 126811
2005 02 04.37487 09 35 41.29 +22 33 27.2   699 – Lowell Observatory-LONEOS MPS 126811
2005 02 04.38947 09 35 40.59 +22 33 32.6   699 – Lowell Observatory-LONEOS MPS 126811
2005 02 04.40407 09 35 39.80 +22 33 37.0   699 – Lowell Observatory-LONEOS MPS 126811
2005 03 01.24365 09 16 14.89 +24 11 49.3 19.0 R 703 – Catalina Sky Survey MPS 127215
2005 03 01.25176 09 16 14.58 +24 11 51.5 19.0 R 703 – Catalina Sky Survey MPS 127215
2005 03 01.25985 09 16 14.25 +24 11 53.2 19.4 R 703 – Catalina Sky Survey MPS 127215
2005 03 01.26795 09 16 13.91 +24 11 52.4 19.1 R 703 – Catalina Sky Survey MPS 127215
2005 03 09.22051 09 11 56.27 +24 22 24.7 19.4 R 703 – Catalina Sky Survey MPS 128017
2005 03 09.22903 09 11 55.84 +24 22 23.7 19.1 R 703 – Catalina Sky Survey MPS 128017
2005 03 09.23757 09 11 55.65 +24 22 25.6 19.7 R 703 – Catalina Sky Survey MPS 128017
2005 03 09.24605 09 11 55.39 +24 22 24.7 19.1 R 703 – Catalina Sky Survey MPS 128017
2008 10 27.17088 00 32 51.57 -03 22 52.4 21.2 V G96 – Mt. Lemmon Survey MPS 304886
2008 10 27.17577 00 32 51.39 -03 22 52.3 22.2 V G96 – Mt. Lemmon Survey MPS 304886
2008 10 27.18074 00 32 51.21 -03 22 53.0 21.7 V G96 – Mt. Lemmon Survey MPS 304886
2008 10 27.18560 00 32 51.03 -03 22 53.9 21.1 V G96 – Mt. Lemmon Survey MPS 304886
2009 11 08.42111 05 23 10.49 +22 31 19.7 21.4 V 691 – Steward Observatory, Kitt Peak-Spacewatch MPS 304886
2009 11 08.43832 05 23 10.04 +22 31 20.8 21.2 V 691 – Steward Observatory, Kitt Peak-Spacewatch MPS 304886
2009 11 08.45550 05 23 09.46 +22 31 22.2 21.0 V 691 – Steward Observatory, Kitt Peak-Spacewatch MPS 304886
2009 11 20.31745 05 15 43.34 +22 40 51.1 20.5 V 691 – Steward Observatory, Kitt Peak-Spacewatch MPS 304886
2009 11 20.33519 05 15 42.55 +22 40 52.1 20.7 V 691 – Steward Observatory, Kitt Peak-Spacewatch MPS 304886
2009 11 20.35294 05 15 41.75 +22 40 53.7 21.2 V 691 – Steward Observatory, Kitt Peak-Spacewatch MPS 304886
2009 11 24.34090 05 12 34.04 +22 43 31.4 20.6 V 691 – Steward Observatory, Kitt Peak-Spacewatch MPS 304886
2009 11 24.35870 05 12 33.17 +22 43 32.6 20.1 V 691 – Steward Observatory, Kitt Peak-Spacewatch MPS 304886
2009 11 24.37649 05 12 32.26 +22 43 33.0 20.7 V 691 – Steward Observatory, Kitt Peak-Spacewatch MPS 304886
2009 12 10.28920 04 58 12.97 +22 50 34.0 19.7 V G96 – Mt. Lemmon Survey MPS 307281
2009 12 10.29618 04 58 12.54 +22 50 34.2 19.6 V G96 – Mt. Lemmon Survey MPS 307281
2009 12 10.30304 04 58 12.18 +22 50 34.3 19.6 V G96 – Mt. Lemmon Survey MPS 307281
2009 12 10.30993 04 58 11.74 +22 50 34.4 19.6 V G96 – Mt. Lemmon Survey MPS 307281
2010 01 07.22032 04 35 39.19 +22 55 21.7 19.9 V G96 – Mt. Lemmon Survey MPS 309335
2010 01 07.22740 04 35 38.90 +22 55 21.7 20.4 V G96 – Mt. Lemmon Survey MPS 309335
2010 01 07.23455 04 35 38.68 +22 55 21.7 20.0 V G96 – Mt. Lemmon Survey MPS 309335
2010 01 07.24170 04 35 38.43 +22 55 21.7 20.3 V G96 – Mt. Lemmon Survey MPS 309335
2010 02 26.077951 04 40 39.874 +23 57 16.42   C51 – WISE MPS 926914
2010 02 26.210255 04 40 45.821 +23 57 26.57   C51 – WISE MPS 926914
2010 02 26.541079 04 41 00.473 +23 58 12.43   C51 – WISE MPS 926914
2010 02 26.607294 04 41 03.506 +23 58 23.84   C51 – WISE MPS 926914
2010 02 26.871903 04 41 15.065 +23 58 54.77   C51 – WISE MPS 926914
2010 02 26.937991 04 41 18.115 +23 59 02.54   C51 – WISE MPS 926914
2011 03 05.44771 13 32 14.40 -01 31 41.7 20.1 V 691 – Steward Observatory, Kitt Peak-Spacewatch MPS 373417
2011 03 05.46547 13 32 14.09 -01 31 38.9 20.1 V 691 – Steward Observatory, Kitt Peak-Spacewatch MPS 373417
2011 03 05.48672 13 32 13.53 -01 31 38.0 19.9 V 691 – Steward Observatory, Kitt Peak-Spacewatch MPS 373417
2011 03 09.44077 13 30 56.13 -01 19 16.3 20.2 V 691 – Steward Observatory, Kitt Peak-Spacewatch MPS 373417
2011 03 09.45854 13 30 55.70 -01 19 12.6 20.3 V 691 – Steward Observatory, Kitt Peak-Spacewatch MPS 373417
2011 03 09.47631 13 30 55.25 -01 19 09.2 20.3 V 691 – Steward Observatory, Kitt Peak-Spacewatch MPS 373417
2011 03 13.40870 13 29 15.48 -01 05 37.0 19.9 V 691 – Steward Observatory, Kitt Peak-Spacewatch MPS 374796
2011 03 13.42695 13 29 14.93 -01 05 33.2 20.0 V 691 – Steward Observatory, Kitt Peak-Spacewatch MPS 374796
2011 03 13.44473 13 29 14.42 -01 05 29.1 19.9 V 691 – Steward Observatory, Kitt Peak-Spacewatch MPS 374796
2011 03 28.35201 13 20 08.29 -00 07 50.4 19.6   704 – Lincoln Laboratory ETS, New Mexico MPS 375525
2011 03 28.36460 13 20 07.73 -00 07 48.0 20.3   704 – Lincoln Laboratory ETS, New Mexico MPS 375525
2011 03 28.37766 13 20 07.12 -00 07 45.1 20.2   704 – Lincoln Laboratory ETS, New Mexico MPS 375525
2011 03 28.40306 13 20 05.99 -00 07 39.9 20.0   704 – Lincoln Laboratory ETS, New Mexico MPS 375525
2011 04 11.36152 13 09 20.95 +00 42 41.0 19.5 V 703 – Catalina Sky Survey MPS 378613
2011 04 11.37052 13 09 20.52 +00 42 42.5 19.6 V 703 – Catalina Sky Survey MPS 378613
2011 04 11.37943 13 09 20.12 +00 42 43.1 19.9 V 703 – Catalina Sky Survey MPS 378613
2011 04 11.38846 13 09 19.65 +00 42 45.0 19.9 V 703 – Catalina Sky Survey MPS 378613
2011 04 28.16779 12 57 28.79 +01 16 43.7 20.1 V 691 – Steward Observatory, Kitt Peak-Spacewatch MPS 381128
2011 04 28.20770 12 57 27.30 +01 16 45.6 19.9 V 691 – Steward Observatory, Kitt Peak-Spacewatch MPS 381128
2011 04 28.24760 12 57 25.81 +01 16 47.7 20.1 V 691 – Steward Observatory, Kitt Peak-Spacewatch MPS 381128
2011 04 30.14453 12 56 20.33 +01 18 04.0 20.2 V 691 – Steward Observatory, Kitt Peak-Spacewatch MPS 382082
2011 04 30.16302 12 56 19.65 +01 18 04.8 20.0 V 691 – Steward Observatory, Kitt Peak-Spacewatch MPS 382082
2011 04 30.18154 12 56 19.01 +01 18 05.4 20.1 V 691 – Steward Observatory, Kitt Peak-Spacewatch MPS 382082
2011 05 03.15197 12 54 44.52 +01 18 54.5 20.1 V 691 – Steward Observatory, Kitt Peak-Spacewatch MPS 382082
2011 05 03.17590 12 54 43.77 +01 18 54.4 20.2 V 691 – Steward Observatory, Kitt Peak-Spacewatch MPS 382082
2011 05 03.19982 12 54 43.00 +01 18 54.5 20.1 V 691 – Steward Observatory, Kitt Peak-Spacewatch MPS 382082
2011 05 07.14942 12 52 54.31 +01 17 45.4 20.3 V 691 – Steward Observatory, Kitt Peak-Spacewatch MPS 383009
2011 05 07.17061 12 52 53.76 +01 17 44.9 20.3 V 691 – Steward Observatory, Kitt Peak-Spacewatch MPS 383009
2011 05 07.19179 12 52 53.20 +01 17 43.7 20.9 V 691 – Steward Observatory, Kitt Peak-Spacewatch MPS 383009
2011 05 08.21401 12 52 28.32 +01 17 00.8 20.6 V 291 – LPL/Spacewatch II MPS 383009
2011 05 08.21854 12 52 28.22 +01 17 00.5 20.6 V 291 – LPL/Spacewatch II MPS 383009
2011 05 08.22470 12 52 28.05 +01 17 00.2 20.5 V 291 – LPL/Spacewatch II MPS 383009
2011 05 11.14536 12 51 25.06 +01 14 01.2 20.3 V 691 – Steward Observatory, Kitt Peak-Spacewatch MPS 383009
2011 05 11.16742 12 51 24.57 +01 13 59.3 20.4 V 691 – Steward Observatory, Kitt Peak-Spacewatch MPS 383009
